[[{"header":{"parameterUnit":"m.s-1","parameterCategory":2,"la1":30.2991,"la2":30.254,"lo1":-89.0895,"lo2":-89.0444,"dy":0.0017,"dx":0.0017,"nx":28,"ny":28,"refTime":"2025-09-15T03:00:00:Z","depth":"0","parameterNumber":2,"parameterNumberName":"U-component_of_CURRENTS"},"data":[0,0,0,0,0,0,0,0,0,0,0,0,0,0,0,0,0,0,0,0,0,0,0,0,0,0,0,0,0,0,0,0,0,0,0,0,0,0,0,0,0,0,0,0,0,0,0,0,0,0,0,0,0,0,0,0,0,0,-0.2711,-0.271,0,-0.2644,-0.2643,-0.2642,-0.2554,-0.2554,-0.2553,-0.2552,-0.2456,-0.2455,-0.2453,0,0,0,0,0,0,0,0,0,0,0,0,0,-0.2714,-0.2715,-0.2711,-0.271,-0.271,-0.2644,-0.2643,-0.2641,-0.2555,-0.2554,-0.2552,-0.2551,-0.2457,-0.2455,-0.2453,0,0,0,0,0,0,0,0,0,0,0,0,0,-0.2682,-0.2715,-0.2711,-0.2663,-0.2658,-0.2644,-0.2643,-0.2641,-0.2555,-0.2553,-0.2552,-0.2551,-0.2458,-0.2455,-0.2453,-0.2465,0,0,-0.2445,-0.2444,0,0,0,0,0,0,0,0,-0.2684,-0.2681,-0.267,-0.2666,-0.2661,-0.2611,-0.2609,-0.2583,-0.2555,-0.2588,-0.2552,-0.255,-0.251,-0.2503,-0.2486,-0.2461,-0.2457,-0.2445,-0.2443,-0.2442,-0.2442,0,0,0,0,0,0,0,-0.2686,-0.2683,-0.2679,-0.267,-0.2665,-0.2628,-0.2622,-0.2603,-0.2553,-0.2585,-0.258,-0.2582,-0.2506,-0.2489,-0.2484,-0.2455,-0.2445,-0.2443,-0.2441,-0.244,-0.2327,-0.2326,0,0,0,0,0,0,-0.271,-0.2686,-0.2681,-0.2677,-0.2675,-0.263,-0.2622,-0.2624,-0.2554,-0.2544,-0.2583,-0.2578,-0.2494,-0.2487,-0.248,-0.2408,-0.2442,-0.244,-0.2439,-0.2329,-0.2327,-0.2325,0,0,0,0,0,0,-0.271,-0.271,-0.2684,-0.2684,-0.2679,-0.2632,-0.2634,-0.2624,-0.2608,-0.2553,-0.2541,-0.258,-0.2493,-0.2483,-0.2445,-0.2407,-0.2439,-0.2437,-0.233,-0.2328,-0.2326,-0.2317,0,0,0,0,0,0,-0.271,-0.271,-0.2713,-0.2686,-0.268,-0.2677,-0.2636,-0.2623,-0.2614,-0.2607,-0.2547,-0.2536,-0.2491,-0.2449,-0.2443,-0.2404,-0.2435,-0.2332,-0.2329,-0.2327,-0.2319,-0.2315,-0.2311,0,0,0,0,0,-0.2711,-0.2717,-0.2714,-0.2713,-0.2688,-0.2678,-0.2671,-0.2629,-0.2616,-0.261,-0.2558,-0.2538,-0.2426,-0.2447,-0.244,-0.2399,-0.2334,-0.233,-0.2327,-0.2321,-0.2316,-0.2311,0,0,0,0,0,0,-0.2702,-0.2709,-0.2704,-0.2708,-0.2699,-0.2665,-0.2649,-0.2643,-0.26,-0.2578,-0.2536,-0.2522,-0.2467,-0.2444,-0.247,-0.2355,-0.237,-0.2365,-0.2368,-0.2363,-0.2358,-0.2368,-0.2433,0,0,0,0,0,-0.2712,-0.2713,-0.272,-0.271,-0.2714,-0.269,-0.2681,-0.2657,-0.2623,-0.2602,-0.2554,-0.2496,-0.2449,-0.2418,-0.2372,-0.233,-0.2322,-0.2292,-0.2288,-0.2285,-0.2285,-0.2264,-0.2259,-0.2314,-0.2314,-0.2314,0,0,-0.2682,-0.2702,-0.2687,-0.2709,-0.2689,-0.2652,-0.2678,-0.2658,-0.2609,-0.26,-0.2509,-0.249,-0.2438,-0.2368,-0.234,-0.2343,-0.2259,-0.228,-0.2278,-0.228,-0.226,-0.2255,-0.225,-0.2312,-0.2312,-0.2312,0,0,-0.2603,-0.2666,-0.2619,-0.263,-0.2629,-0.2632,-0.2637,-0.2609,-0.2587,-0.2529,-0.2497,-0.2466,-0.2381,-0.2336,-0.2305,-0.226,-0.2246,-0.2236,-0.2214,-0.2193,-0.2189,-0.2186,-0.2154,-0.2147,-0.2225,-0.2225,-0.2225,0,-0.2534,-0.2542,-0.2601,-0.2566,-0.2576,-0.2622,-0.2576,-0.2556,-0.2507,-0.2506,-0.2487,-0.2393,-0.2357,-0.2295,-0.2263,-0.225,-0.2238,-0.224,-0.219,-0.2187,-0.2183,-0.2151,-0.2145,-0.2224,-0.2224,-0.2224,-0.2225,0,-0.2421,-0.2436,-0.2422,-0.24,-0.2414,-0.2407,-0.2415,-0.241,-0.2411,-0.2395,-0.2358,-0.2318,-0.2274,-0.2246,-0.2233,-0.2188,-0.2187,-0.2198,-0.2211,-0.2178,-0.2145,-0.2138,-0.2223,-0.2223,-0.2224,-0.2224,0,0,-0.223,-0.2315,-0.2309,-0.2328,-0.2358,-0.2363,-0.2321,-0.2333,-0.2327,-0.2282,-0.2264,-0.2192,-0.2223,-0.2191,-0.2186,-0.2161,-0.2119,-0.2166,-0.2166,-0.2147,-0.2065,-0.1942,-0.1923,-0.2128,-0.2128,-0.2127,-0.2048,0,-0.2113,-0.2085,-0.2149,-0.2121,-0.2134,-0.2212,-0.2187,-0.22,-0.222,-0.221,-0.2213,-0.2182,-0.2185,-0.2181,-0.2156,-0.2142,-0.2103,-0.2139,-0.2089,-0.2087,-0.1992,-0.1911,-0.1796,-0.1706,-0.2041,-0.204,-0.2039,0,-0.1988,-0.2019,-0.199,-0.2091,-0.2096,-0.207,-0.2142,-0.2121,-0.2144,-0.2159,-0.2158,-0.2169,-0.2141,-0.2147,-0.2094,-0.212,-0.2085,-0.2065,-0.2062,-0.1947,-0.195,-0.1794,-0.1681,-0.1683,-0.2029,-0.203,-0.203,0,-0.1916,-0.1931,-0.1946,-0.1963,-0.203,-0.2037,-0.2067,-0.2102,-0.2115,-0.2137,-0.2144,-0.2135,-0.2117,-0.2091,-0.2046,-0.2076,-0.1976,-0.2015,-0.1863,-0.1855,-0.1745,-0.1727,-0.1637,-0.1955,-0.1955,-0.1955,-0.1955,0,-0.1842,-0.185,-0.1919,-0.1928,-0.1938,-0.2001,-0.201,-0.2041,-0.2077,-0.208,-0.2119,-0.2099,-0.2103,-0.2054,-0.2028,-0.1901,-0.1956,-0.1833,-0.1814,-0.1733,-0.1716,-0.1704,-0.1754,-0.1952,-0.1953,-0.1953,-0.1954,0,-0.1766,-0.1817,-0.1834,-0.1897,-0.1911,-0.1915,-0.197,-0.1981,-0.2031,-0.2032,-0.2038,-0.2056,-0.1981,-0.1952,-0.1888,-0.1846,-0.1721,-0.1704,-0.1596,-0.1564,-0.1423,-0.1477,-0.1381,-0.1344,-0.1532,-0.1528,-0.1525,0,-0.1728,-0.1731,-0.1786,-0.1792,-0.1814,-0.184,-0.1856,-0.1932,-0.195,-0.1989,-0.1977,-0.1924,-0.1828,-0.1681,-0.1597,-0.1484,-0.1545,-0.1342,-0.1367,-0.1361,-0.1411,-0.1478,-0.1462,-0.1224,-0.1218,-0.1214,-0.121,0,-0.1642,-0.1661,-0.1677,-0.1691,-0.1707,-0.1727,-0.1761,-0.1769,-0.1852,-0.1821,-0.1747,-0.1667,-0.1542,-0.1351,-0.1239,-0.1187,-0.1308,-0.1246,-0.1274,-0.1167,-0.1202,-0.1175,-0.1342,-0.1171,-0.1175,-0.1178,-0.118,-0.1182,-0.1556,-0.1543,-0.1563,-0.1564,-0.1586,-0.1586,-0.1546,-0.157,-0.1528,-0.1423,-0.1451,-0.12,-0.1154,-0.0946,-0.0923,-0.0858,-0.0977,-0.0855,-0.0923,-0.0994,-0.0939,-0.0996,-0.0784,-0.0786,-0.0787,-0.0788,-0.0789,0,-0.1435,-0.1434,-0.1434,-0.1431,-0.1403,-0.1455,-0.1452,-0.1365,-0.1227,-0.1095,-0.0919,-0.0628,-0.055,-0.0569,-0.058,-0.0566,-0.061,-0.0594,-0.0695,-0.0696,-0.0753,-0.0718,-0.0438,-0.0438,-0.0438,-0.0438,-0.0438,-0.0438,-0.137,-0.1324,-0.1327,-0.1239,-0.1233,-0.1135,-0.1091,-0.0947,-0.0809,-0.0446,-0.0169,-0.0018,-0.0149,-0.0402,-0.0495,-0.0483,-0.055,-0.0507,-0.0595,-0.0677,-0.0709,-0.0739,-0.0716,-0.0441,-0.0441,-0.0485,-0.0485,-0.0486]},{"header":{"parameterUnit":"m.s-1","parameterCategory":2,"la1":30.2991,"la2":30.254,"lo1":-89.0895,"lo2":-89.0444,"dy":0.0017,"dx":0.0017,"nx":28,"ny":28,"refTime":"2025-09-15T03:00:00:Z","depth":"0","parameterNumber":3,"parameterNumberName":"V-component_of_CURRENTS"},"data":[0,0,0,0,0,0,0,0,0,0,0,0,0,0,0,0,0,0,0,0,0,0,0,0,0,0,0,0,0,0,0,0,0,0,0,0,0,0,0,0,0,0,0,0,0,0,0,0,0,0,0,0,0,0,0,0,0,0,-0.037,-0.0369,0,-0.0266,-0.0264,-0.0263,-0.0215,-0.0215,-0.0215,-0.0215,0.0023,0.003,0.0036,0,0,0,0,0,0,0,0,0,0,0,0,0,-0.0452,-0.0451,-0.037,-0.0369,-0.0368,-0.0266,-0.0264,-0.0263,-0.0215,-0.0215,-0.0215,-0.0216,0.0021,0.0029,0.0037,0,0,0,0,0,0,0,0,0,0,0,0,0,-0.0388,-0.0451,-0.037,-0.0332,-0.0328,-0.0266,-0.0264,-0.0262,-0.0215,-0.0215,-0.0215,-0.0216,0.0019,0.0028,0.0038,0.0104,0,0,0.0068,0.0072,0,0,0,0,0,0,0,0,-0.0392,-0.0385,-0.0339,-0.0335,-0.033,-0.0254,-0.0206,-0.0134,-0.0215,-0.0257,-0.0215,-0.0216,-0.0057,-0.0042,-0.0022,0.0115,0.0125,0.0069,0.0074,0.0079,0.0081,0,0,0,0,0,0,0,-0.0397,-0.0389,-0.0328,-0.0338,-0.0332,-0.0294,-0.0286,-0.0192,-0.0154,-0.0253,-0.025,-0.0239,-0.0054,-0.0032,-0.0015,0.0129,0.0068,0.0077,0.0083,0.0087,0.0359,0.036,0,0,0,0,0,0,-0.0415,-0.0394,-0.0331,-0.0325,-0.0363,-0.0293,-0.0284,-0.0278,-0.0157,-0.0141,-0.0239,-0.0238,-0.0048,-0.0027,-0.0007,0.0048,0.0079,0.0088,0.0093,0.0357,0.0359,0.036,0,0,0,0,0,0,-0.0417,-0.0411,-0.0335,-0.0357,-0.0345,-0.0292,-0.0285,-0.0275,-0.0253,-0.0149,-0.0129,-0.0227,-0.0048,-0.002,0.0088,0.0059,0.0092,0.0101,0.0356,0.0358,0.036,0.0177,0,0,0,0,0,0,-0.042,-0.0412,-0.0416,-0.0359,-0.0345,-0.029,-0.0284,-0.0273,-0.0246,-0.0243,-0.0131,-0.011,-0.0046,0.0073,0.0098,0.0073,0.0109,0.0354,0.0357,0.0359,0.0181,0.0173,0.0165,0,0,0,0,0,-0.0424,-0.0425,-0.0417,-0.0409,-0.0351,-0.029,-0.0278,-0.0241,-0.0246,-0.0224,-0.015,-0.0113,0.0106,0.0083,0.0111,0.0088,0.0353,0.0356,0.0359,0.0185,0.0174,0.0165,0,0,0,0,0,0,-0.0463,-0.0418,-0.0409,-0.0397,-0.0345,-0.0282,-0.0267,-0.0243,-0.0173,-0.0173,-0.0084,-0.0055,0.0027,0.0104,0.0075,0.0182,0.0232,0.0241,0.009,0.0081,0.0073,0.0044,0.0117,0,0,0,0,0,-0.0475,-0.0465,-0.0408,-0.0398,-0.0378,-0.0325,-0.03,-0.0272,-0.0205,-0.0177,-0.0099,-0.0012,0.0063,0.0107,0.0203,0.0267,0.0326,0.0274,0.0265,0.0257,0.0259,0.0315,0.0309,0.037,0.037,0.037,0,0,-0.0489,-0.0464,-0.0458,-0.0406,-0.0371,-0.0352,-0.031,-0.0273,-0.0264,-0.0157,-0.011,-0.0025,0.0082,0.0144,0.0186,0.02,0.0274,0.0261,0.0252,0.026,0.0317,0.031,0.0305,0.0372,0.0372,0.0372,0,0,-0.0509,-0.0488,-0.0486,-0.0453,-0.0402,-0.0367,-0.036,-0.0291,-0.0267,-0.0203,-0.0137,-0.0071,0.0061,0.0109,0.0151,0.0167,0.0237,0.0203,0.0123,0.0174,0.0168,0.0163,0.0217,0.0218,0.0186,0.0185,0.0185,0,-0.0528,-0.0524,-0.0472,-0.0465,-0.0449,-0.0384,-0.038,-0.0346,-0.0251,-0.0226,-0.0203,-0.0045,0.003,0.0083,0.0076,0.0138,0.0193,0.0131,0.0155,0.0153,0.0151,0.0207,0.0211,0.0177,0.0178,0.0179,0.0179,0,-0.0546,-0.0547,-0.0542,-0.0521,-0.0492,-0.0472,-0.0423,-0.0389,-0.0359,-0.0318,-0.0242,-0.0143,-0.0051,-0.0034,0.0018,0.0045,0.0096,0.0137,0.0156,0.0132,0.0195,0.0202,0.0165,0.0168,0.017,0.0172,0,0,-0.0572,-0.056,-0.0559,-0.0569,-0.0523,-0.05,-0.0489,-0.0444,-0.0438,-0.0364,-0.0341,-0.0254,-0.0195,-0.014,-0.0069,-0.0043,-0.0033,0.0027,0.0034,0.0038,0.009,0.013,0.0143,0.0006,0.0007,0.0008,0.0131,0,-0.06,-0.0621,-0.0596,-0.0614,-0.0621,-0.0569,-0.0564,-0.052,-0.0469,-0.0422,-0.0351,-0.0286,-0.0239,-0.0201,-0.017,-0.0041,-0.0018,-0.0069,0.0153,0.016,0.0162,0.0151,0.0196,0.0311,0.0139,0.014,0.0141,0,-0.0624,-0.0638,-0.0668,-0.0674,-0.0669,-0.0669,-0.064,-0.0621,-0.0549,-0.0508,-0.0443,-0.036,-0.0294,-0.0256,-0.0102,-0.0131,-0.0038,0.0039,0.0046,0.0155,0.0214,0.0319,0.0332,0.045,0.0153,0.0152,0.0151,0,-0.0675,-0.0687,-0.0718,-0.072,-0.0713,-0.0715,-0.0701,-0.0646,-0.0625,-0.0552,-0.0516,-0.0417,-0.0346,-0.0235,-0.0074,-0.0081,0.01,0.0117,0.0236,0.0241,0.0362,0.0375,0.0482,0.0208,0.0208,0.0207,0.0207,0,-0.0719,-0.0743,-0.0749,-0.077,-0.0801,-0.0771,-0.0776,-0.0747,-0.0689,-0.0644,-0.0559,-0.0485,-0.0336,-0.0205,-0.0082,0.011,0.0102,0.0227,0.0275,0.0302,0.0308,0.0486,0.0519,0.0212,0.0211,0.021,0.0209,0,-0.0771,-0.0775,-0.0814,-0.0825,-0.083,-0.0851,-0.0834,-0.0828,-0.0767,-0.0702,-0.0678,-0.0524,-0.0343,-0.0192,0.0016,0.0117,0.0362,0.0345,0.0364,0.0411,0.061,0.0631,0.0789,0.0884,0.0488,0.049,0.0491,0,-0.0799,-0.0827,-0.0863,-0.0888,-0.0896,-0.0915,-0.0922,-0.0878,-0.0849,-0.0701,-0.0663,-0.0485,-0.0307,-0.0006,0.0177,0.0389,0.0467,0.0543,0.0524,0.0628,0.0688,0.0686,0.0754,0.0616,0.0619,0.0621,0.0622,0,-0.0849,-0.086,-0.0892,-0.0948,-0.0973,-0.0991,-0.0984,-0.0966,-0.0873,-0.0754,-0.0548,-0.0389,-0.0123,0.0161,0.0386,0.0505,0.063,0.0589,0.0705,0.0799,0.08,0.0913,0.0524,0.0639,0.0638,0.0636,0.0635,0.0635,-0.0873,-0.0911,-0.095,-0.0996,-0.1028,-0.103,-0.0989,-0.0923,-0.0803,-0.0547,-0.0433,-0.0101,0.0194,0.0535,0.063,0.0843,0.0793,0.093,0.0949,0.0939,0.102,0.0659,0.0817,0.0816,0.0816,0.0815,0.0815,0,-0.0894,-0.0933,-0.0989,-0.1029,-0.105,-0.1056,-0.0994,-0.0878,-0.0657,-0.0405,-0.0125,0.0352,0.0643,0.0847,0.1096,0.121,0.1226,0.1268,0.1287,0.1344,0.105,0.1046,0.1252,0.1251,0.1251,0.1251,0.1251,0.1251,-0.0904,-0.0958,-0.0989,-0.1024,-0.1041,-0.0973,-0.09,-0.0681,-0.0456,0.0026,0.038,0.0646,0.0945,0.1262,0.1489,0.1517,0.1647,0.1604,0.1684,0.1482,0.1452,0.1423,0.1429,0.1712,0.1713,0.1992,0.1995,0.1997]}],[{"header":{"parameterUnit":"m.s-1","parameterCategory":2,"la1":30.2991,"la2":30.254,"lo1":-89.0895,"lo2":-89.0444,"dy":0.0017,"dx":0.0017,"nx":28,"ny":28,"refTime":"2025-09-15T03:00:00:Z","depth":"2","parameterNumber":2,"parameterNumberName":"U-component_of_CURRENTS"},"data":[0,0,0,0,0,0,0,0,0,0,0,0,0,0,0,0,0,0,0,0,0,0,0,0,0,0,0,0,0,0,0,0,0,0,0,0,0,0,0,0,0,0,0,0,0,0,0,0,0,0,0,0,0,0,0,0,0,0,-0.205,-0.2051,0,-0.2089,-0.2089,-0.2089,-0.2093,-0.2093,-0.2093,-0.2093,-0.2164,-0.2166,-0.2168,0,0,0,0,0,0,0,0,0,0,0,0,0,-0.1976,-0.1977,-0.205,-0.2051,-0.2051,-0.2089,-0.2089,-0.2089,-0.2093,-0.2093,-0.2093,-0.2093,-0.2163,-0.2166,-0.2168,0,0,0,0,0,0,0,0,0,0,0,0,0,-0.201,-0.1978,-0.205,-0.2059,-0.206,-0.2089,-0.2089,-0.209,-0.2094,-0.2093,-0.2093,-0.2092,-0.2162,-0.2165,-0.2169,-0.2196,0,0,-0.2178,-0.218,0,0,0,0,0,0,0,0,-0.2008,-0.2012,-0.2057,-0.2058,-0.206,-0.2087,-0.2089,-0.2127,-0.2094,-0.2079,-0.2093,-0.2092,-0.2143,-0.2147,-0.2153,-0.22,-0.2203,-0.2179,-0.2181,-0.2182,-0.2183,0,0,0,0,0,0,0,-0.2005,-0.201,-0.2064,-0.2058,-0.206,-0.206,-0.2064,-0.2096,-0.2112,-0.2081,-0.2081,-0.2088,-0.2143,-0.215,-0.2155,-0.2204,-0.2179,-0.2181,-0.2183,-0.2185,-0.2226,-0.2225,0,0,0,0,0,0,-0.2004,-0.2008,-0.2063,-0.2065,-0.2034,-0.2062,-0.2066,-0.2078,-0.2111,-0.2116,-0.2088,-0.2088,-0.2144,-0.2151,-0.2157,-0.218,-0.2182,-0.2185,-0.2187,-0.2227,-0.2226,-0.2225,0,0,0,0,0,0,-0.2003,-0.2009,-0.2061,-0.2038,-0.2045,-0.2063,-0.2076,-0.2079,-0.209,-0.2117,-0.2122,-0.2097,-0.2144,-0.2153,-0.2168,-0.2183,-0.2186,-0.2189,-0.2228,-0.2227,-0.2226,-0.2233,0,0,0,0,0,0,-0.2001,-0.2008,-0.2017,-0.2039,-0.2047,-0.2072,-0.2077,-0.208,-0.2095,-0.2095,-0.2127,-0.2132,-0.2145,-0.2163,-0.2171,-0.2188,-0.2192,-0.2229,-0.2227,-0.2226,-0.2234,-0.2232,-0.2231,0,0,0,0,0,-0.1998,-0.2007,-0.2017,-0.2024,-0.2058,-0.2073,-0.2076,-0.2087,-0.2096,-0.2096,-0.2107,-0.2132,-0.2159,-0.2165,-0.2175,-0.2193,-0.223,-0.2228,-0.2226,-0.2234,-0.2232,-0.2231,0,0,0,0,0,0,-0.1988,-0.2009,-0.202,-0.2039,-0.2054,-0.2074,-0.2082,-0.2092,-0.2103,-0.2109,-0.2129,-0.2135,-0.2152,-0.2164,-0.217,-0.2194,-0.2196,-0.2196,-0.2199,-0.2198,-0.2196,-0.2188,-0.2195,0,0,0,0,0,-0.1989,-0.1997,-0.2021,-0.2037,-0.2046,-0.2067,-0.2077,-0.2086,-0.21,-0.2106,-0.2124,-0.2139,-0.2153,-0.2167,-0.2179,-0.2203,-0.219,-0.2215,-0.2213,-0.2212,-0.2208,-0.2191,-0.2188,-0.2219,-0.2219,-0.2219,0,0,-0.1996,-0.2005,-0.2014,-0.2034,-0.205,-0.2067,-0.2071,-0.209,-0.2103,-0.2114,-0.2134,-0.214,-0.2155,-0.2169,-0.2179,-0.2184,-0.2193,-0.221,-0.2209,-0.2206,-0.2189,-0.2186,-0.2183,-0.2218,-0.2218,-0.2218,0,0,-0.1999,-0.2017,-0.2022,-0.2036,-0.2056,-0.207,-0.2077,-0.2099,-0.2106,-0.2127,-0.2128,-0.213,-0.2169,-0.2166,-0.2175,-0.2172,-0.2183,-0.2184,-0.2182,-0.2166,-0.2163,-0.2161,-0.213,-0.2125,-0.2188,-0.2188,-0.2188,0,-0.2007,-0.2014,-0.2026,-0.2036,-0.2049,-0.2073,-0.2087,-0.2104,-0.2124,-0.2128,-0.2133,-0.2151,-0.2164,-0.2172,-0.2164,-0.2173,-0.2159,-0.2195,-0.2165,-0.2163,-0.2161,-0.2129,-0.2124,-0.2188,-0.2188,-0.2188,-0.2188,0,-0.2006,-0.2022,-0.2029,-0.2048,-0.2064,-0.2079,-0.2106,-0.2119,-0.2136,-0.2147,-0.2155,-0.2156,-0.2163,-0.2168,-0.2172,-0.2163,-0.2156,-0.2165,-0.2175,-0.2158,-0.2125,-0.212,-0.2188,-0.2188,-0.2188,-0.2188,0,0,-0.1978,-0.2021,-0.2018,-0.2035,-0.207,-0.2082,-0.2111,-0.213,-0.2144,-0.2158,-0.2162,-0.2171,-0.2166,-0.2171,-0.217,-0.2155,-0.2124,-0.2156,-0.2155,-0.2132,-0.2076,-0.1965,-0.1948,-0.2134,-0.2133,-0.2133,-0.2057,0,-0.1968,-0.1989,-0.2009,-0.2037,-0.2055,-0.2088,-0.2111,-0.2136,-0.2155,-0.2165,-0.2164,-0.2171,-0.2171,-0.2171,-0.2157,-0.2138,-0.211,-0.2142,-0.2089,-0.2086,-0.1996,-0.1938,-0.1807,-0.1719,-0.2051,-0.205,-0.2049,0,-0.1936,-0.1958,-0.1983,-0.2033,-0.2043,-0.2063,-0.2095,-0.2121,-0.2147,-0.2161,-0.2166,-0.2172,-0.2156,-0.2155,-0.2109,-0.2133,-0.2099,-0.2078,-0.2075,-0.1964,-0.1963,-0.1789,-0.1695,-0.2039,-0.204,-0.2041,-0.2042,0,-0.1883,-0.1929,-0.1948,-0.1965,-0.203,-0.2042,-0.2071,-0.2109,-0.2124,-0.2151,-0.2157,-0.2155,-0.2139,-0.2114,-0.2069,-0.2095,-0.2003,-0.2036,-0.1896,-0.1889,-0.176,-0.1741,-0.1982,-0.1982,-0.1983,-0.1983,-0.1983,0,-0.1848,-0.1859,-0.1926,-0.1937,-0.1953,-0.2012,-0.2028,-0.206,-0.2097,-0.2101,-0.2142,-0.2127,-0.2128,-0.2083,-0.2055,-0.1937,-0.1988,-0.187,-0.1852,-0.1755,-0.1737,-0.201,-0.2015,-0.198,-0.1981,-0.1981,-0.1982,0,-0.1781,-0.183,-0.1851,-0.1914,-0.1928,-0.1938,-0.1993,-0.2005,-0.2057,-0.206,-0.2066,-0.2089,-0.202,-0.1992,-0.1931,-0.189,-0.1813,-0.1757,-0.163,-0.1597,-0.1719,-0.1725,-0.1604,-0.1599,-0.1595,-0.1591,-0.1589,0,-0.1749,-0.1754,-0.181,-0.1816,-0.184,-0.187,-0.1886,-0.1961,-0.1977,-0.2021,-0.2007,-0.1965,-0.1898,-0.1764,-0.1664,-0.1554,-0.1661,-0.1399,-0.1415,-0.168,-0.1676,-0.1688,-0.1699,-0.1252,-0.1246,-0.1242,-0.1238,0,-0.1674,-0.1693,-0.1711,-0.1725,-0.1741,-0.1762,-0.1795,-0.1801,-0.1879,-0.1884,-0.1862,-0.1816,-0.1677,-0.1488,-0.1346,-0.1284,-0.1411,-0.1303,-0.1599,-0.1364,-0.134,-0.134,-0.1363,-0.1199,-0.1203,-0.1206,-0.1208,-0.121,-0.1599,-0.1589,-0.1608,-0.1607,-0.163,-0.1625,-0.1595,-0.1647,-0.1642,-0.1621,-0.1677,-0.1559,-0.1496,-0.118,-0.1072,-0.0976,-0.1085,-0.1071,-0.1088,-0.1109,-0.1078,-0.1048,-0.0845,-0.0847,-0.0849,-0.085,-0.0851,0,-0.1493,-0.149,-0.1488,-0.1478,-0.1446,-0.1502,-0.1506,-0.1448,-0.1399,-0.142,-0.139,-0.1181,-0.1023,-0.0947,-0.0717,-0.0663,-0.0698,-0.0653,-0.0718,-0.0755,-0.0789,-0.0746,-0.0423,-0.0422,-0.0421,-0.042,0,0,-0.1436,-0.1392,-0.1388,-0.1289,-0.1278,-0.118,-0.1152,-0.1109,-0.109,-0.1006,-0.0956,-0.1031,-0.0957,-0.0732,-0.0642,-0.0497,-0.064,-0.0466,-0.0806,-0.0923,-0.0956,-0.1015,-0.0987,0,0,0,0,0]},{"header":{"parameterUnit":"m.s-1","parameterCategory":2,"la1":30.2991,"la2":30.254,"lo1":-89.0895,"lo2":-89.0444,"dy":0.0017,"dx":0.0017,"nx":28,"ny":28,"refTime":"2025-09-15T03:00:00:Z","depth":"2","parameterNumber":3,"parameterNumberName":"V-component_of_CURRENTS"},"data":[0,0,0,0,0,0,0,0,0,0,0,0,0,0,0,0,0,0,0,0,0,0,0,0,0,0,0,0,0,0,0,0,0,0,0,0,0,0,0,0,0,0,0,0,0,0,0,0,0,0,0,0,0,0,0,0,0,0,-0.0318,-0.0318,0,-0.0267,-0.0266,-0.0266,-0.0225,-0.0224,-0.0224,-0.0224,-0.012,-0.0118,-0.0115,0,0,0,0,0,0,0,0,0,0,0,0,0,-0.0358,-0.0358,-0.0318,-0.0318,-0.0317,-0.0267,-0.0266,-0.0266,-0.0225,-0.0224,-0.0224,-0.0224,-0.0121,-0.0118,-0.0115,0,0,0,0,0,0,0,0,0,0,0,0,0,-0.0327,-0.0357,-0.0318,-0.0291,-0.0288,-0.0267,-0.0266,-0.0265,-0.0225,-0.0224,-0.0224,-0.0223,-0.0122,-0.0118,-0.0115,-0.0103,0,0,-0.0104,-0.0102,0,0,0,0,0,0,0,0,-0.0329,-0.0325,-0.0296,-0.0293,-0.029,-0.0252,-0.0242,-0.0209,-0.0225,-0.0248,-0.0224,-0.0223,-0.016,-0.0153,-0.0145,-0.0098,-0.0094,-0.0103,-0.0101,-0.01,-0.0099,0,0,0,0,0,0,0,-0.0331,-0.0327,-0.0297,-0.0295,-0.0291,-0.0274,-0.0269,-0.0236,-0.0206,-0.0246,-0.0243,-0.0239,-0.0158,-0.0149,-0.0142,-0.0092,-0.0103,-0.01,-0.0098,-0.0097,-0.0031,-0.0031,0,0,0,0,0,0,-0.034,-0.0329,-0.0299,-0.0296,-0.0309,-0.0274,-0.0268,-0.0264,-0.0208,-0.0199,-0.0239,-0.0237,-0.0155,-0.0146,-0.0138,-0.0104,-0.01,-0.0096,-0.0094,-0.003,-0.0031,-0.0031,0,0,0,0,0,0,-0.0341,-0.0338,-0.0301,-0.0312,-0.0306,-0.0274,-0.027,-0.0264,-0.0254,-0.0203,-0.0193,-0.0236,-0.0154,-0.0143,-0.0124,-0.01,-0.0095,-0.0091,-0.003,-0.0031,-0.0031,-0.0046,0,0,0,0,0,0,-0.0343,-0.0339,-0.0341,-0.0312,-0.0306,-0.0294,-0.027,-0.0263,-0.0252,-0.0248,-0.0197,-0.0187,-0.0153,-0.013,-0.0121,-0.0095,-0.0088,-0.0029,-0.003,-0.0031,-0.0045,-0.0047,-0.0049,0,0,0,0,0,-0.0344,-0.0351,-0.0341,-0.0338,-0.0309,-0.0294,-0.0289,-0.0264,-0.0252,-0.0252,-0.0227,-0.0188,-0.0128,-0.0128,-0.0117,-0.0089,-0.0029,-0.003,-0.0031,-0.0044,-0.0047,-0.0049,0,0,0,0,0,0,-0.0369,-0.0346,-0.0335,-0.0334,-0.0318,-0.0288,-0.0285,-0.0269,-0.0249,-0.0246,-0.0199,-0.0188,-0.0159,-0.0134,-0.0136,-0.0077,-0.0069,-0.0068,-0.0083,-0.0085,-0.0087,-0.0098,-0.0085,0,0,0,0,0,-0.0377,-0.0375,-0.035,-0.0351,-0.0344,-0.0316,-0.0308,-0.0292,-0.027,-0.026,-0.0225,-0.019,-0.0155,-0.0131,-0.0103,-0.0073,-0.0043,-0.0049,-0.005,-0.0052,-0.0056,-0.0003,0.0,-0.0035,-0.0035,-0.0035,0,0,-0.0386,-0.0374,-0.0373,-0.0356,-0.0341,-0.0334,-0.031,-0.0302,-0.0291,-0.0252,-0.023,-0.0199,-0.0153,-0.012,-0.0103,-0.0093,-0.0027,-0.0053,-0.0055,-0.0057,-0.0003,0.0,0.0004,-0.0035,-0.0035,-0.0035,0,0,-0.0408,-0.0395,-0.0401,-0.039,-0.0373,-0.0353,-0.0353,-0.0326,-0.0308,-0.0288,-0.0255,-0.0219,-0.0169,-0.0127,-0.0099,-0.0098,-0.0046,-0.0085,-0.0089,-0.0038,-0.0034,-0.003,0.0014,0.0022,-0.0078,-0.0078,-0.0078,0,-0.0423,-0.0425,-0.0402,-0.0404,-0.0398,-0.0364,-0.0368,-0.0343,-0.0313,-0.0299,-0.0285,-0.021,-0.0167,-0.0116,-0.0112,-0.0097,-0.0069,-0.0079,-0.0038,-0.0034,-0.003,0.0015,0.0024,-0.0078,-0.0078,-0.0078,-0.0078,0,-0.0445,-0.0448,-0.0451,-0.0439,-0.0429,-0.043,-0.0394,-0.038,-0.0352,-0.0321,-0.0276,-0.0223,-0.0177,-0.0149,-0.0124,-0.0072,-0.0062,-0.0051,-0.0029,-0.0027,0.002,0.0029,-0.008,-0.0079,-0.0079,-0.0079,0,0,-0.0479,-0.0471,-0.0472,-0.0477,-0.0451,-0.0447,-0.0426,-0.0397,-0.038,-0.0333,-0.0304,-0.0231,-0.02,-0.0169,-0.0126,-0.0073,-0.001,-0.0052,-0.0049,-0.0001,0.0099,0.0123,0.0136,0.0009,0.001,0.0011,0.0122,0,-0.0507,-0.0529,-0.0508,-0.052,-0.0529,-0.0491,-0.0475,-0.0441,-0.0398,-0.036,-0.0287,-0.0246,-0.0206,-0.0182,-0.0122,-0.0043,0.0013,-0.0041,0.0085,0.0088,0.0115,0.0148,0.0137,0.0235,0.0131,0.0133,0.0134,0,-0.0535,-0.0548,-0.0573,-0.057,-0.0569,-0.0565,-0.0536,-0.0515,-0.0445,-0.0411,-0.0349,-0.0294,-0.0209,-0.0181,-0.0034,-0.0073,0.0009,0.0073,0.008,0.0113,0.013,0.0216,0.0257,0.0151,0.0149,0.0148,0.0147,0,-0.0581,-0.0591,-0.0616,-0.0616,-0.0604,-0.0604,-0.059,-0.0536,-0.0515,-0.0443,-0.0415,-0.0314,-0.0255,-0.0148,-0.0008,-0.002,0.0154,0.0157,0.0255,0.0258,0.0279,0.0281,0.026,0.026,0.026,0.026,0.0259,0,-0.0623,-0.0641,-0.0643,-0.0659,-0.0685,-0.0653,-0.0655,-0.0624,-0.057,-0.0533,-0.0449,-0.0387,-0.0243,-0.0125,-0.0012,0.0158,0.0157,0.0264,0.0294,0.0272,0.0272,0.0217,0.021,0.0264,0.0263,0.0262,0.0261,0,-0.0669,-0.067,-0.0701,-0.0706,-0.071,-0.0727,-0.0711,-0.0703,-0.0645,-0.0592,-0.0572,-0.0431,-0.0269,-0.0124,0.0069,0.0162,0.031,0.0368,0.033,0.0353,0.0379,0.037,0.0489,0.0491,0.0492,0.0494,0.0495,0,-0.0694,-0.0716,-0.0745,-0.0769,-0.0774,-0.079,-0.0799,-0.0754,-0.0732,-0.0603,-0.0577,-0.0415,-0.0267,0.0012,0.0189,0.0388,0.0376,0.0482,0.0462,0.0388,0.0405,0.0393,0.0383,0.0486,0.0487,0.0488,0.0489,0,-0.0738,-0.0748,-0.0774,-0.0829,-0.0853,-0.0871,-0.0869,-0.0859,-0.0777,-0.0715,-0.0569,-0.0436,-0.0153,0.0083,0.0321,0.0432,0.0445,0.0505,0.0461,0.0421,0.0392,0.0406,0.0395,0.0496,0.0495,0.0495,0.0494,0.0494,-0.0764,-0.0797,-0.0833,-0.0879,-0.0911,-0.0926,-0.0931,-0.0894,-0.0842,-0.07,-0.0579,-0.035,-0.0138,0.0228,0.0389,0.0537,0.054,0.0574,0.0569,0.0564,0.0535,0.051,0.063,0.063,0.063,0.063,0.063,0,-0.079,-0.0826,-0.0878,-0.0923,-0.0954,-0.0962,-0.0959,-0.0924,-0.0847,-0.0668,-0.0517,-0.0263,0.0002,0.023,0.0486,0.0622,0.0595,0.0629,0.0573,0.0566,0.0561,0.0528,0.0623,0.0623,0.0623,0.0623,0,0,-0.0804,-0.0857,-0.0886,-0.094,-0.0967,-0.0985,-0.0978,-0.0905,-0.0779,-0.0584,-0.0403,-0.0227,0.0063,0.0211,0.0382,0.0531,0.0507,0.0533,0.0531,0.044,0.0433,0.0529,0.0473,0,0,0,0,0]}],[{"header":{"parameterUnit":"m.s-1","parameterCategory":2,"la1":30.2991,"la2":30.254,"lo1":-89.0895,"lo2":-89.0444,"dy":0.0017,"dx":0.0017,"nx":28,"ny":28,"refTime":"2025-09-15T03:00:00:Z","depth":"4","parameterNumber":2,"parameterNumberName":"U-component_of_CURRENTS"},"data":[0,0,0,0,0,0,0,0,0,0,0,0,0,0,0,0,0,0,0,0,0,0,0,0,0,0,0,0,0,0,0,0,0,0,0,0,0,0,0,0,0,0,0,0,0,0,0,0,0,0,0,0,0,0,0,0,0,0,-0.1454,-0.1454,0,-0.1506,-0.1506,-0.1507,-0.1541,-0.1541,-0.1542,-0.1542,-0.1609,-0.161,-0.1612,0,0,0,0,0,0,0,0,0,0,0,0,0,-0.137,-0.1371,-0.1453,-0.1454,-0.1455,-0.1506,-0.1506,-0.1507,-0.1541,-0.1541,-0.1542,-0.1542,-0.1608,-0.161,-0.1612,0,0,0,0,0,0,0,0,0,0,0,0,0,-0.1412,-0.1372,-0.1453,-0.1479,-0.1482,-0.1506,-0.1506,-0.1507,-0.1541,-0.1541,-0.1542,-0.1542,-0.1608,-0.161,-0.1612,-0.1616,0,0,-0.1619,-0.162,0,0,0,0,0,0,0,0,-0.1409,-0.1414,-0.1474,-0.1477,-0.148,-0.1518,-0.1501,-0.1545,-0.1541,-0.1517,-0.1542,-0.1543,-0.158,-0.1585,-0.1592,-0.1619,-0.1622,-0.1619,-0.1621,-0.1622,-0.1622,0,0,0,0,0,0,0,-0.1406,-0.1412,-0.1473,-0.1475,-0.1479,-0.1483,-0.149,-0.151,-0.1545,-0.1519,-0.1522,-0.153,-0.1582,-0.159,-0.1594,-0.1623,-0.1619,-0.1621,-0.1623,-0.1623,-0.1696,-0.1697,0,0,0,0,0,0,-0.1402,-0.141,-0.1471,-0.1475,-0.1446,-0.1484,-0.1492,-0.1505,-0.1545,-0.1551,-0.1529,-0.1531,-0.1586,-0.1591,-0.1596,-0.1664,-0.1622,-0.1624,-0.1625,-0.1695,-0.1696,-0.1697,0,0,0,0,0,0,-0.14,-0.1408,-0.1469,-0.1444,-0.1452,-0.1486,-0.15,-0.1506,-0.1539,-0.1552,-0.1559,-0.156,-0.1586,-0.1593,-0.1631,-0.1664,-0.1625,-0.1627,-0.1695,-0.1696,-0.1696,-0.176,0,0,0,0,0,0,-0.1398,-0.1407,-0.1428,-0.1444,-0.1454,-0.1498,-0.15,-0.1506,-0.1542,-0.1545,-0.158,-0.1585,-0.1587,-0.1628,-0.1633,-0.1667,-0.1628,-0.1694,-0.1695,-0.1696,-0.1757,-0.1763,-0.1768,0,0,0,0,0,-0.1395,-0.1416,-0.1429,-0.1437,-0.1478,-0.1498,-0.1504,-0.1528,-0.1543,-0.156,-0.1583,-0.1586,-0.1638,-0.163,-0.1637,-0.1671,-0.1693,-0.1695,-0.1696,-0.1755,-0.1762,-0.1768,0,0,0,0,0,0,-0.1399,-0.1422,-0.1436,-0.1467,-0.1489,-0.1505,-0.153,-0.1544,-0.1575,-0.159,-0.1598,-0.1605,-0.1649,-0.1646,-0.1637,-0.1692,-0.1665,-0.1667,-0.1707,-0.1714,-0.1719,-0.1704,-0.163,0,0,0,0,0,-0.1408,-0.1428,-0.145,-0.1479,-0.1493,-0.1517,-0.1535,-0.1552,-0.1575,-0.1592,-0.1613,-0.1635,-0.1655,-0.1674,-0.1688,-0.1724,-0.1696,-0.1746,-0.1752,-0.1756,-0.1747,-0.1735,-0.1739,-0.1701,-0.1701,-0.1701,0,0,-0.1422,-0.1435,-0.1452,-0.1481,-0.1504,-0.1531,-0.153,-0.1567,-0.1596,-0.1594,-0.1648,-0.1659,-0.1667,-0.1705,-0.1724,-0.1712,-0.1752,-0.1758,-0.1763,-0.175,-0.1737,-0.1741,-0.1744,-0.1702,-0.1702,-0.1702,0,0,-0.1443,-0.1471,-0.1492,-0.1512,-0.1547,-0.156,-0.1577,-0.1608,-0.1632,-0.1677,-0.168,-0.1705,-0.1748,-0.1751,-0.1759,-0.1801,-0.178,-0.1814,-0.1838,-0.1828,-0.1831,-0.1833,-0.18,-0.1799,-0.1819,-0.1819,-0.182,0,-0.1464,-0.1486,-0.1503,-0.1527,-0.1549,-0.1577,-0.1606,-0.1635,-0.1676,-0.1692,-0.1704,-0.175,-0.1765,-0.1792,-0.1809,-0.1815,-0.1796,-0.1818,-0.1835,-0.1837,-0.1838,-0.1804,-0.1801,-0.1823,-0.1822,-0.1822,-0.1822,0,-0.1486,-0.152,-0.1536,-0.1575,-0.1602,-0.1632,-0.1667,-0.1702,-0.1737,-0.1755,-0.1799,-0.1812,-0.1831,-0.1847,-0.1848,-0.1867,-0.1846,-0.1844,-0.182,-0.1846,-0.1808,-0.1804,-0.1827,-0.1826,-0.1825,-0.1824,0,0,-0.1481,-0.1542,-0.1548,-0.1574,-0.1628,-0.1647,-0.1703,-0.1742,-0.1772,-0.1817,-0.1843,-0.1884,-0.1885,-0.1891,-0.1893,-0.189,-0.1891,-0.1878,-0.1876,-0.1847,-0.1854,-0.1716,-0.1699,-0.1899,-0.1899,-0.1898,-0.1823,0,-0.1493,-0.154,-0.1568,-0.1623,-0.1649,-0.1694,-0.1736,-0.178,-0.1817,-0.1851,-0.187,-0.1899,-0.1905,-0.1917,-0.1919,-0.1898,-0.1885,-0.191,-0.1831,-0.1827,-0.1704,-0.1691,-0.1898,-0.182,-0.182,-0.1819,-0.1818,0,-0.1485,-0.1519,-0.1573,-0.1637,-0.1654,-0.1695,-0.1753,-0.1796,-0.1848,-0.1876,-0.1905,-0.1919,-0.193,-0.1929,-0.1901,-0.192,-0.1889,-0.1867,-0.1864,-0.1706,-0.1683,-0.1789,-0.1812,-0.1812,-0.1813,-0.1813,-0.1814,0,-0.1438,-0.1513,-0.1555,-0.158,-0.1662,-0.1697,-0.1742,-0.1802,-0.1831,-0.1886,-0.1902,-0.1925,-0.1925,-0.1909,-0.1871,-0.1893,-0.1817,-0.1839,-0.1679,-0.1669,-0.1791,-0.1789,-0.1803,-0.1803,-0.1803,-0.1804,-0.1804,0,-0.1409,-0.1445,-0.1542,-0.1564,-0.161,-0.1679,-0.1727,-0.1774,-0.1832,-0.1842,-0.1907,-0.1895,-0.1922,-0.1887,-0.1862,-0.1739,-0.1806,-0.1661,-0.1635,-0.1819,-0.1821,-0.1788,-0.1787,-0.1801,-0.1801,-0.1802,-0.1802,0,-0.1343,-0.1411,-0.1462,-0.1559,-0.1588,-0.1622,-0.171,-0.1733,-0.1804,-0.1815,-0.1831,-0.1866,-0.1806,-0.1798,-0.1747,-0.1693,-0.1615,-0.1556,-0.1727,-0.1716,-0.148,-0.1484,-0.1372,-0.1367,-0.1362,-0.1358,-0.1354,0,-0.1309,-0.1332,-0.1438,-0.1465,-0.1513,-0.1577,-0.1609,-0.1702,-0.1717,-0.1768,-0.1748,-0.1729,-0.1726,-0.1533,-0.1556,-0.1469,-0.1455,-0.1417,-0.147,-0.1447,-0.1434,-0.1445,-0.1455,-0.1347,-0.1346,-0.1344,-0.1343,0,-0.1239,-0.1291,-0.1331,-0.1384,-0.1431,-0.1468,-0.1521,-0.1516,-0.1595,-0.1682,-0.1601,-0.1554,-0.147,-0.1419,-0.1346,-0.1301,-0.1451,-0.1368,-0.1379,-0.1428,-0.1416,-0.1409,-0.1425,-0.1327,-0.1329,-0.1331,-0.1331,0,-0.1181,-0.119,-0.1248,-0.1277,-0.1333,-0.1324,-0.1372,-0.1369,-0.1392,-0.1458,-0.142,-0.1403,-0.1437,-0.1327,-0.1269,-0.1198,-0.1191,-0.1175,-0.1196,-0.1215,-0.1198,-0.1162,-0.0949,0,0,0,0,0,-0.1115,-0.1107,-0.1131,-0.1148,-0.1197,-0.1216,-0.129,-0.134,-0.1418,-0.1315,-0.1362,-0.1278,-0.118,-0.1185,-0.1073,-0.1195,-0.1197,-0.1063,-0.1193,-0.1235,-0.1254,-0.1249,0,0,0,0,0,0,-0.1069,-0.1089,-0.1089,-0.1028,-0.1009,-0.1034,-0.107,-0.1125,-0.1081,-0.1168,-0.1114,-0.1192,-0.111,-0.1196,-0.1037,-0.1036,-0.1091,-0.1072,-0.1068,-0.1224,-0.1241,-0.1257,-0.1259,0,0,0,0,0]},{"header":{"parameterUnit":"m.s-1","parameterCategory":2,"la1":30.2991,"la2":30.254,"lo1":-89.0895,"lo2":-89.0444,"dy":0.0017,"dx":0.0017,"nx":28,"ny":28,"refTime":"2025-09-15T03:00:00:Z","depth":"4","parameterNumber":3,"parameterNumberName":"V-component_of_CURRENTS"},"data":[0,0,0,0,0,0,0,0,0,0,0,0,0,0,0,0,0,0,0,0,0,0,0,0,0,0,0,0,0,0,0,0,0,0,0,0,0,0,0,0,0,0,0,0,0,0,0,0,0,0,0,0,0,0,0,0,0,0,-0.0247,-0.0246,0,-0.022,-0.0219,-0.0219,-0.0195,-0.0194,-0.0194,-0.0194,-0.0145,-0.0144,-0.0143,0,0,0,0,0,0,0,0,0,0,0,0,0,-0.0261,-0.0261,-0.0247,-0.0246,-0.0246,-0.022,-0.0219,-0.0219,-0.0195,-0.0194,-0.0194,-0.0194,-0.0146,-0.0144,-0.0143,0,0,0,0,0,0,0,0,0,0,0,0,0,-0.0246,-0.0261,-0.0247,-0.0231,-0.023,-0.022,-0.0219,-0.0219,-0.0195,-0.0194,-0.0194,-0.0194,-0.0146,-0.0145,-0.0143,-0.0141,0,0,-0.0138,-0.0137,0,0,0,0,0,0,0,0,-0.0247,-0.0246,-0.0234,-0.0232,-0.023,-0.0211,-0.0207,-0.0192,-0.0195,-0.0207,-0.0194,-0.0194,-0.0166,-0.0163,-0.0158,-0.0138,-0.0136,-0.0138,-0.0137,-0.0136,-0.0136,0,0,0,0,0,0,0,-0.0248,-0.0246,-0.0235,-0.0233,-0.0231,-0.022,-0.0218,-0.0204,-0.0188,-0.0206,-0.0205,-0.0203,-0.0165,-0.016,-0.0157,-0.0136,-0.0138,-0.0137,-0.0136,-0.0135,-0.0111,-0.0111,0,0,0,0,0,0,-0.0254,-0.0248,-0.0236,-0.0235,-0.0239,-0.022,-0.0218,-0.0217,-0.0189,-0.0184,-0.0203,-0.0202,-0.0162,-0.0158,-0.0155,-0.0136,-0.0136,-0.0135,-0.0134,-0.011,-0.0111,-0.0111,0,0,0,0,0,0,-0.0254,-0.0253,-0.0237,-0.0241,-0.0238,-0.0221,-0.022,-0.0217,-0.0214,-0.0187,-0.0182,-0.0204,-0.0162,-0.0157,-0.0151,-0.0134,-0.0134,-0.0133,-0.011,-0.011,-0.0111,-0.0107,0,0,0,0,0,0,-0.0255,-0.0253,-0.0258,-0.0241,-0.0238,-0.0238,-0.022,-0.0216,-0.0213,-0.0211,-0.0186,-0.0181,-0.0161,-0.0154,-0.0149,-0.0132,-0.0131,-0.011,-0.011,-0.0111,-0.0107,-0.0108,-0.0108,0,0,0,0,0,-0.0255,-0.0263,-0.0259,-0.0257,-0.0244,-0.0238,-0.0236,-0.0221,-0.0214,-0.0217,-0.0202,-0.0182,-0.0154,-0.0153,-0.0148,-0.013,-0.0109,-0.011,-0.0111,-0.0107,-0.0108,-0.0108,0,0,0,0,0,0,-0.0272,-0.0261,-0.0256,-0.026,-0.0253,-0.0235,-0.0236,-0.0227,-0.0218,-0.0217,-0.019,-0.0184,-0.017,-0.016,-0.016,-0.0127,-0.0126,-0.0126,-0.0125,-0.0126,-0.0126,-0.0126,-0.013,0,0,0,0,0,-0.0279,-0.0283,-0.0269,-0.0274,-0.0271,-0.0255,-0.0252,-0.0244,-0.0232,-0.0228,-0.0209,-0.0191,-0.0169,-0.0157,-0.0143,-0.0129,-0.0104,-0.0115,-0.0115,-0.0115,-0.0114,-0.0064,-0.0059,-0.0113,-0.0113,-0.0113,0,0,-0.0287,-0.0282,-0.0284,-0.0278,-0.027,-0.0267,-0.0253,-0.0252,-0.0245,-0.0224,-0.0213,-0.0195,-0.0169,-0.015,-0.0142,-0.0137,-0.0089,-0.0116,-0.0116,-0.0114,-0.0064,-0.0058,-0.0053,-0.0114,-0.0114,-0.0114,0,0,-0.0304,-0.0301,-0.0308,-0.0303,-0.0297,-0.0284,-0.0286,-0.0272,-0.0261,-0.0253,-0.023,-0.0204,-0.0185,-0.015,-0.0132,-0.0129,-0.0097,-0.0129,-0.0122,-0.0074,-0.0068,-0.0063,-0.0029,-0.0021,-0.0124,-0.0124,-0.0124,0,-0.0316,-0.0321,-0.031,-0.0313,-0.0312,-0.0293,-0.0298,-0.0281,-0.0267,-0.0256,-0.0253,-0.0204,-0.0178,-0.0134,-0.0129,-0.0125,-0.0105,-0.0118,-0.0072,-0.0066,-0.0061,-0.0027,-0.0018,-0.0124,-0.0124,-0.0124,-0.0124,0,-0.0332,-0.0339,-0.0343,-0.0338,-0.0334,-0.0339,-0.0315,-0.0308,-0.0293,-0.0271,-0.0239,-0.0203,-0.017,-0.0152,-0.0137,-0.0086,-0.0086,-0.008,-0.0065,-0.0055,-0.0021,-0.0011,-0.0124,-0.0124,-0.0124,-0.0124,0,0,-0.0356,-0.0356,-0.0359,-0.0364,-0.0351,-0.0351,-0.0335,-0.0314,-0.0302,-0.0272,-0.0248,-0.0193,-0.0171,-0.015,-0.0119,-0.007,-0.0008,-0.0061,-0.0059,-0.0019,0.0088,0.007,0.0078,0.0006,0.0007,0.0009,0.0096,0,-0.0375,-0.0394,-0.0383,-0.0395,-0.0402,-0.0379,-0.0368,-0.0344,-0.0315,-0.0287,-0.0228,-0.0199,-0.0169,-0.0154,-0.0097,-0.0037,0.0016,-0.0033,0.0064,0.0067,0.0057,0.0089,0.0014,0.0103,0.0105,0.0107,0.0108,0,-0.0394,-0.0407,-0.0428,-0.043,-0.043,-0.0432,-0.0413,-0.0398,-0.0344,-0.0321,-0.0269,-0.0229,-0.0152,-0.0135,-0.0006,-0.0043,0.0023,0.0075,0.0079,0.0069,0.0067,0.009,0.0125,0.0124,0.0123,0.0121,0.012,0,-0.0424,-0.0436,-0.0458,-0.046,-0.0456,-0.0461,-0.0454,-0.0414,-0.0401,-0.0343,-0.0325,-0.0234,-0.0191,-0.0093,0.0015,0.0006,0.0152,0.0154,0.0203,0.0202,0.019,0.0184,0.0252,0.0252,0.0252,0.0251,0.0251,0,-0.0447,-0.0465,-0.048,-0.0493,-0.0519,-0.0499,-0.0507,-0.0484,-0.0445,-0.0421,-0.0349,-0.0304,-0.0178,-0.0082,0.0015,0.0137,0.0157,0.0213,0.023,0.0187,0.0179,0.0197,0.019,0.0255,0.0254,0.0253,0.0253,0,-0.0472,-0.0481,-0.0511,-0.0526,-0.0537,-0.0555,-0.0558,-0.0555,-0.0513,-0.0479,-0.0464,-0.0351,-0.0223,-0.0097,0.0067,0.0131,0.025,0.0289,0.0229,0.0239,0.0266,0.0257,0.0352,0.0352,0.0352,0.0352,0.0352,0,-0.0484,-0.0504,-0.0547,-0.0575,-0.0589,-0.0613,-0.063,-0.06,-0.0587,-0.0499,-0.048,-0.0357,-0.027,-0.0054,0.0078,0.0255,0.0277,0.0326,0.0306,0.0272,0.028,0.0271,0.0262,0.0353,0.0353,0.0353,0.0353,0,-0.0506,-0.0528,-0.0554,-0.0619,-0.0654,-0.068,-0.0693,-0.0685,-0.0631,-0.0598,-0.0484,-0.0361,-0.0216,-0.005,0.0083,0.0212,0.0286,0.0329,0.0329,0.031,0.0275,0.028,0.0271,0.0353,0.0353,0.0353,0.0353,0,-0.0523,-0.0554,-0.0599,-0.0649,-0.0701,-0.0725,-0.0727,-0.0695,-0.067,-0.0566,-0.0524,-0.0357,-0.0255,-0.007,0.006,0.0175,0.0202,0.0224,0.023,0.0231,0.0165,0.01,0.015,0,0,0,0,0,-0.0534,-0.0571,-0.0625,-0.0676,-0.0727,-0.075,-0.0758,-0.0743,-0.069,-0.0619,-0.0568,-0.0427,-0.0214,-0.0111,0.0001,0.0054,0.021,0.0187,0.0234,0.0357,0.0357,0.0297,0,0,0,0,0,0,-0.0543,-0.0597,-0.0625,-0.0687,-0.0723,-0.0767,-0.077,-0.0735,-0.0682,-0.0614,-0.0499,-0.0419,-0.0213,-0.0281,-0.0002,0.0036,0.0076,0.0294,0.0296,0.0358,0.0357,0.0356,0.0295,0,0,0,0,0]}]]